Flag for Poland Weather past 2 weeks in Rzeszów, Poland

Now
52 °F

Clear.


Feels Like: 51 °F
Forecast: 53 / 75 °F
Wind: 5 mph from Southwest

Location: Rzeszow-Jasionka

Current Time: Apr 26, 2015 at 3:51:27 AM

Latest Report: Apr 26, 2015 at 3:30 AM


Visibility: 10 mi

Pressure: 29.86 "Hg

Humidity: 72%

Dew point: 43 °F

Location of RzeszówLocation

Historic Weather in Rzeszów — Graph

°F

Rzeszów temperature yesterday

Maximum temperature yesterday: 73 °F (at 3:30 PM)
Minimum temperature yesterday: 48 °F (at 5:00 AM)
Average temperature yesterday: 62 °F

Past Weeks' High & Low Weather Summary

 TemperatureHumidityPressure
High73 °F (Apr 25, 3:30 PM)100% (Apr 18, 10:30 PM)30.33 "Hg (Apr 18, 10:30 PM)
Low34 °F (Apr 14, 4:00 AM)21% (Apr 11, 12:30 PM)29.80 "Hg (Apr 16, 4:30 AM)
Average51 °F59%30.04 "Hg
* Reported Apr 11 2:00 AM — Apr 26 2:30 AM, Rzeszów, Weather by CustomWeather, © 2015

Note: Actual official high and low records may vary slightly from our data, if they occured in-between our weather recording intervals... More about our weather records

Advertising

Rzeszów weather history for previous 24 hours

 ConditionsComfort  
Time TempWeatherWind HumidityBarometerVisibility
2:30 AM
Sun, Apr 26
54 °FPassing clouds.3 mph67%29.86 "HgN/A
2:00 AM54 °FClear.2 mph67%29.86 "Hg10 mi
1:30 AM54 °FClear.3 mph67%29.86 "Hg10 mi
1:00 AM55 °FClear.3 mph63%29.86 "Hg10 mi
12:30 AM57 °FClear.5 mph59%29.86 "Hg10 mi
12:00 AM57 °FClear.2 mph59%29.86 "Hg10 mi
11:00 PM
Sat, Apr 25
57 °FClear.6 mph59%29.86 "Hg10 mi
10:30 PM59 °FClear.6 mph55%29.86 "Hg10 mi
10:00 PM59 °FClear.7 mph55%29.86 "Hg10 mi
9:30 PM61 °FClear.6 mph52%29.86 "Hg10 mi
9:00 PM63 °FClear.8 mph49%29.86 "Hg10 mi
8:30 PM64 °FSunny.5 mph43%29.86 "Hg10 mi
8:00 PM66 °FSunny.5 mph40%29.86 "Hg10 mi
7:30 PM68 °FSunny.2 mph38%29.86 "Hg10 mi
7:00 PM68 °FSunny.6 mph40%29.86 "Hg10 mi
6:30 PM70 °FPassing clouds.5 mph33%29.86 "HgN/A
6:00 PM70 °FPassing clouds.7 mph35%29.86 "HgN/A
5:30 PM72 °FSunny.9 mph33%29.86 "Hg10 mi
5:00 PM73 °FSunny.9 mph33%29.86 "Hg10 mi
4:30 PM73 °FPassing clouds.10 mph33%29.86 "HgN/A
4:00 PM73 °FPassing clouds.12 mph33%29.86 "HgN/A
3:30 PM73 °FSunny.13 mph36%29.89 "Hg10 mi
3:00 PM72 °FPassing clouds.13 mph33%29.89 "HgN/A
2:30 PM72 °FSunny.13 mph36%29.92 "Hg10 mi
2:00 PM72 °FPassing clouds.12 mph36%29.92 "HgN/A
1:30 PM72 °FPassing clouds.12 mph38%29.92 "HgN/A
1:00 PM70 °FPassing clouds.6 mph38%29.95 "HgN/A
12:30 PM70 °FPassing clouds.7 mph38%29.95 "HgN/A
12:00 PM70 °FPassing clouds.10 mph38%29.95 "HgN/A
11:30 AM68 °FPassing clouds.9 mph38%29.98 "HgN/A
11:00 AM68 °FPassing clouds.7 mph38%29.98 "HgN/A
10:30 AM64 °FPassing clouds.6 mph43%29.98 "HgN/A
10:00 AM64 °FPassing clouds.7 mph46%29.98 "HgN/A
9:30 AM63 °FSunny.7 mph52%29.98 "Hg10 mi
9:00 AM61 °FSunny.6 mph59%29.98 "Hg10 mi
8:30 AM59 °FSunny.7 mph59%29.98 "Hg10 mi
8:00 AM57 °FSunny.6 mph63%29.98 "Hg10 mi
7:30 AM55 °FSunny.5 mph67%29.98 "Hg10 mi
7:00 AM52 °FSunny.3 mph77%29.98 "Hg10 mi
6:30 AM50 °FSunny.6 mph76%29.98 "Hg10 mi
6:00 AM48 °FClear.5 mph82%29.98 "Hg10 mi
5:30 AM50 °FClear.3 mph76%29.95 "Hg10 mi
5:00 AM48 °FClear.5 mph82%29.95 "Hg10 mi
4:30 AM50 °FClear.6 mph76%29.95 "Hg10 mi
4:00 AM50 °FClear.6 mph82%29.95 "Hg10 mi
3:30 AM50 °FClear.3 mph82%29.95 "Hg10 mi
3:00 AM52 °FClear.3 mph77%29.95 "Hg10 mi
Weather by CustomWeather, © 2015

See weather overviewHow to use our weather pages